ONEWEB-0674 (55833 NORAD) Tracking and Keplerian Element Data

This shows tracking and keplerian element data for the satellite.

Feedback or suggestion? Click here.




ElementValue
Catalog55833
NameONEWEB-0674
Epoch Orbit863
Epoch Day126.63020943
Epoch Year2023
RAAN173.6766
Inclination86.5088
Eccentricity0.0002264
Argument of Perigee133.2526
Mean Anonmoly226.8891
Mean Motion14.92986706
Decay Rate4.6E-05
L11 55833U 23029AP 23126.63020943 .00004600 00000+0 44032-3 0 9996
L22 55833 86.5088 173.6766 0002264 133.2526 226.8891 14.92986706 8638



Live tracking and technical data element details for ONEWEB-0674 (NORAD 55833). ONEWEB-0674 can be tracked NOW for your location showing map with azimuth and elevation plus other details from your city location.







IsCatalogInMostPopularTable: catalog: 55833, numindb: 6
Update: records affected: 1



GetName: 55833 ONEWEB-0674

Hit Count: updated at: Tue, 06 Jun 2023 02:31:19 GMT